Weather reports worldwide

Advertisment
Valladolid, Spain (8141): temperature & dewpoint: 13.03.2019 10:00:00 - 19.03.2019 10:00:00 (CET)Valladolid, Spain (8141): wind speed: 13.03.2019 10:00:00 - 19.03.2019 10:00:00 (CET)Valladolid, Spain (8141): wind direction: 13.03.2019 10:00:00 - 19.03.2019 10:00:00 (CET)Valladolid, Spain (8141): reduced air pressure: 13.03.2019 10:00:00 - 19.03.2019 10:00:00 (CET)Valladolid, Spain (8141): visibility: 13.03.2019 10:00:00 - 19.03.2019 10:00:00 (CET)Valladolid, Spain (8141): precipitation: 13.03.2019 10:00:00 - 19.03.2019 10:00:00 (CET)
Date & Time tt [°C] td [°C] ff [km/h] ff [kn] dd ppp [hPa] vv [km] rr [mm]
19.03.2019 10:00:00 - - - - - - - -
19.03.2019 09:00:00 5,1 1,0 2 1 N 1029,4 20 0,0
19.03.2019 08:00:00 2,6 0,0 4 2 WNW 1029,8 20 0,0
19.03.2019 07:00:00 3,0 -0,1 4 2 W 1029,3 20 -
19.03.2019 06:00:00 3,6 0,1 2 1 N 1028,9 20 0,0
19.03.2019 05:00:00 4,2 0,2 4 2 NNW 1028,8 20 0,0
19.03.2019 04:00:00 4,2 0,0 4 2 NW 1028,7 20 -
19.03.2019 03:00:00 4,5 -0,5 2 1 NW 1028,9 20 0,0
19.03.2019 02:00:00 5,2 -0,6 4 2 NE 1028,8 20 0,0
19.03.2019 01:00:00 5,4 -0,9 8 4 ENE 1029,1 20 -
19.03.2019 00:00:00 5,6 -1,1 5 3 NE 1029,0 20 0,0
18.03.2019 23:00:00 6,2 -1,5 9 5 ENE 1028,8 20 0,0
18.03.2019 22:00:00 7,4 -1,6 13 7 ENE 1028,1 20 -
18.03.2019 21:00:00 8,5 -1,3 9 5 ENE 1027,2 20 0,0
18.03.2019 20:00:00 9,2 -2,1 5 3 ENE 1026,6 20 0,0
18.03.2019 19:00:00 10,1 -2,6 5 3 NE 1026,0 30 -
18.03.2019 18:00:00 11,1 -2,7 5 3 NE 1025,2 20 0,0
18.03.2019 17:00:00 12,1 -1,5 8 4 NE 1025,0 20 0,0
18.03.2019 16:00:00 11,8 -1,0 8 4 NE 1025,3 30 -
18.03.2019 15:00:00 11,3 -1,2 8 4 NE 1025,8 20 0,0
18.03.2019 14:00:00 10,9 -1,2 8 4 NE 1026,7 20 0,0
18.03.2019 13:00:00 9,9 -0,3 9 5 NE 1027,8 30 -
18.03.2019 12:00:00 8,0 -0,5 9 5 ENE 1028,8 20 0,0
18.03.2019 11:00:00 6,5 0,0 5 3 NE 1029,5 20 0,0
18.03.2019 10:00:00 4,3 -0,5 4 2 NNE 1030,0 20 -
18.03.2019 09:00:00 2,0 -1,6 4 2 N 1030,1 20 0,0
18.03.2019 08:00:00 -0,5 -2,4 2 1 NNW 1030,3 20 0,0
18.03.2019 07:00:00 -0,6 -2,7 2 1 NNW 1029,8 20 -
18.03.2019 06:00:00 -0,2 -2,6 4 2 N 1029,3 20 0,0
18.03.2019 05:00:00 0,8 -2,4 4 2 NNW 1028,6 20 0,0
18.03.2019 04:00:00 2,0 -2,0 5 3 NE 1027,9 20 -
18.03.2019 03:00:00 2,8 -1,8 4 2 NE 1027,8 20 0,0
18.03.2019 02:00:00 3,5 -1,5 8 4 NE 1027,2 20 0,0
18.03.2019 01:00:00 4,1 -1,1 8 4 NE 1026,8 20 -
18.03.2019 00:00:00 4,8 -1,2 5 3 NE 1026,3 20 0,0
17.03.2019 23:00:00 5,5 -0,4 8 4 NNE 1025,6 20 0,0
17.03.2019 22:00:00 5,9 -0,2 8 4 NNE 1024,7 25 -
17.03.2019 21:00:00 7,3 0,5 8 4 NNE 1023,7 20 0,0
17.03.2019 20:00:00 9,3 1,2 9 5 NE 1021,8 20 0,0
17.03.2019 19:00:00 11,4 1,9 15 8 ENE 1020,3 30 -
17.03.2019 18:00:00 13,9 1,8 9 5 NNW 1018,5 20 0,0
17.03.2019 17:00:00 15,2 1,0 11 6 NNW 1017,7 20 0,0
17.03.2019 16:00:00 15,2 2,0 11 6 NW 1018,1 30 -
17.03.2019 15:00:00 15,7 2,8 15 8 WNW 1018,3 20 0,0
17.03.2019 14:00:00 15,0 2,8 13 7 NW 1018,7 20 0,0
17.03.2019 13:00:00 14,5 3,9 11 6 NW 1019,2 30 -
17.03.2019 12:00:00 12,4 4,6 8 4 W 1020,2 20 0,0
17.03.2019 11:00:00 9,6 3,6 9 5 W 1021,3 20 0,0
17.03.2019 10:00:00 6,5 2,6 11 6 WSW 1022,1 20 -
17.03.2019 09:00:00 6,1 2,0 13 7 W 1021,4 20 0,0
17.03.2019 08:00:00 5,2 0,9 15 8 WSW 1021,2 20 0,0
17.03.2019 07:00:00 5,1 0,5 4 2 S 1020,2 20 -
17.03.2019 06:00:00 6,3 0,6 9 5 SW 1019,4 20 0,0
17.03.2019 05:00:00 6,6 0,7 9 5 SSW 1019,0 20 0,0
17.03.2019 04:00:00 7,8 0,5 8 4 S 1018,2 20 -
17.03.2019 03:00:00 8,2 0,9 5 3 S 1018,6 20 0,0
17.03.2019 02:00:00 10,7 -0,2 9 5 SW 1018,1 20 0,0
17.03.2019 01:00:00 11,7 -0,5 11 6 WSW 1018,1 20 -
17.03.2019 00:00:00 12,2 1,2 4 2 SE 1018,1 20 0,0
16.03.2019 23:00:00 13,8 0,8 11 6 SSW 1017,5 20 0,0
16.03.2019 22:00:00 13,2 0,6 9 5 W 1017,4 25 -
16.03.2019 21:00:00 14,9 0,3 11 6 W 1016,7 20 0,0
16.03.2019 20:00:00 16,5 1,7 11 6 W 1016,1 20 0,0
16.03.2019 19:00:00 19,7 1,1 11 6 W 1014,9 30 -
16.03.2019 18:00:00 21,2 2,4 11 6 W 1014,7 20 0,0
16.03.2019 17:00:00 22,4 1,4 13 7 W 1014,7 20 0,0
16.03.2019 16:00:00 22,7 0,5 11 6 W 1015,3 30 -
16.03.2019 15:00:00 22,5 -0,9 11 6 W 1016,2 20 0,0
16.03.2019 14:00:00 20,7 -0,1 8 4 WSW 1018,2 20 0,0
16.03.2019 13:00:00 17,2 -0,5 5 3 S 1020,3 30 -
16.03.2019 12:00:00 13,2 0,9 4 2 NNE 1022,2 20 0,0
16.03.2019 11:00:00 9,9 -0,1 4 2 NNW 1023,8 18 0,0
16.03.2019 10:00:00 7,2 0,2 4 2 ENE 1024,9 20 -
16.03.2019 09:00:00 3,5 -0,5 2 1 N 1026,4 16 0,0
16.03.2019 08:00:00 1,1 -1,1 2 1 N 1027,1 16 0,0
16.03.2019 07:00:00 1,4 -1,2 4 2 N 1027,3 15 -
16.03.2019 06:00:00 2,2 -0,9 2 1 N 1027,3 17 0,0
16.03.2019 05:00:00 3,0 -0,6 2 1 N 1027,0 19 0,0
16.03.2019 04:00:00 3,4 -0,8 4 2 NNE 1027,0 15 -
16.03.2019 03:00:00 4,6 -0,4 2 1 NW 1027,6 20 0,0
16.03.2019 02:00:00 5,3 0,3 4 2 NE 1027,6 16 0,0
16.03.2019 01:00:00 6,5 0,8 2 1 N 1027,3 20 -
16.03.2019 00:00:00 8,0 1,2 2 1 NNW 1027,3 16 0,0
15.03.2019 23:00:00 9,3 -0,1 5 3 WNW 1026,8 20 0,0
15.03.2019 22:00:00 10,9 0,6 2 1 NNW 1026,2 25 -
15.03.2019 21:00:00 12,4 0,2 5 3 WNW 1025,4 20 0,0
15.03.2019 20:00:00 14,7 1,9 5 3 WNW 1024,5 20 0,0
15.03.2019 19:00:00 17,5 0,2 4 2 W 1023,7 30 -
15.03.2019 18:00:00 19,2 -0,8 4 2 WNW 1023,0 20 0,0
15.03.2019 17:00:00 20,6 0,9 4 2 W 1022,6 20 0,0
15.03.2019 16:00:00 20,5 0,8 4 2 S 1023,2 25 -
15.03.2019 15:00:00 18,8 0,8 4 2 WNW 1024,2 20 0,0
15.03.2019 14:00:00 16,9 0,1 5 3 SSE 1025,6 20 0,0
15.03.2019 13:00:00 14,9 0,7 4 2 W 1027,1 20 -
15.03.2019 12:00:00 11,9 1,8 4 2 NE 1028,5 20 0,0
15.03.2019 11:00:00 8,1 0,3 4 2 NNW 1030,3 19 0,0
15.03.2019 10:00:00 5,4 0,0 4 2 E 1031,4 22 -
15.03.2019 09:00:00 2,4 0,0 2 1 N 1032,2 15 0,0
15.03.2019 08:00:00 0,5 -1,1 4 2 NNW 1032,7 16 0,0
15.03.2019 07:00:00 0,5 -1,9 2 1 N 1032,7 25 -
15.03.2019 06:00:00 1,0 -2,4 2 1 ENE 1032,2 20 0,0
15.03.2019 05:00:00 1,7 -2,4 2 1 NE 1031,9 20 0,0
15.03.2019 04:00:00 2,6 -1,2 0 0 N 1031,7 20 -
15.03.2019 03:00:00 3,4 -1,0 4 2 NW 1031,9 20 0,0
15.03.2019 02:00:00 4,3 -1,5 2 1 NE 1031,9 20 0,0
15.03.2019 01:00:00 5,6 -2,0 4 2 SSE 1031,1 25 -
15.03.2019 00:00:00 6,3 -2,6 2 1 SSE 1031,3 20 0,0
14.03.2019 23:00:00 7,5 -1,5 4 2 SSE 1030,7 20 0,0
14.03.2019 22:00:00 8,2 -1,6 4 2 W 1030,2 25 -
14.03.2019 21:00:00 9,2 -2,1 2 1 NW 1029,4 20 0,0
14.03.2019 20:00:00 11,5 -2,0 4 2 SSW 1028,6 20 0,0
14.03.2019 19:00:00 13,6 -3,2 8 4 W 1027,5 30 -
14.03.2019 18:00:00 14,4 -3,0 5 3 WNW 1027,2 20 0,0
14.03.2019 17:00:00 16,0 -2,5 9 5 W 1026,9 20 0,0
14.03.2019 16:00:00 15,4 -2,6 5 3 WSW 1027,5 30 -
14.03.2019 15:00:00 14,0 -0,1 5 3 W 1028,4 20 0,0
14.03.2019 14:00:00 12,4 -0,5 5 3 WSW 1030,4 20 0,0
14.03.2019 13:00:00 10,8 0,2 8 4 SSW 1031,6 30 -
14.03.2019 12:00:00 8,8 -0,5 4 2 WNW 1032,8 20 0,0
14.03.2019 11:00:00 7,5 0,0 5 3 SSW 1033,3 20 0,0
14.03.2019 10:00:00 5,3 -0,3 2 1 ESE 1034,3 20 -
14.03.2019 09:00:00 2,0 -1,4 2 1 N 1035,4 20 0,0
14.03.2019 08:00:00 -0,3 -1,9 2 1 E 1036,3 20 0,0
14.03.2019 07:00:00 -0,3 -2,4 4 2 WNW 1036,0 20 -
14.03.2019 06:00:00 0,1 -2,1 2 1 NE 1035,6 20 0,0
14.03.2019 05:00:00 1,0 -1,9 4 2 NW 1035,2 20 0,0
14.03.2019 04:00:00 1,6 -1,5 4 2 ESE 1035,0 20 -
14.03.2019 03:00:00 1,9 -1,7 4 2 NW 1035,1 20 0,0
14.03.2019 02:00:00 2,4 -2,0 4 2 W 1035,2 20 0,0
14.03.2019 01:00:00 3,1 -1,8 4 2 WNW 1035,1 15 -
14.03.2019 00:00:00 3,8 -1,6 4 2 WNW 1034,7 20 0,0
13.03.2019 23:00:00 5,3 -1,4 4 2 NNW 1034,1 20 0,0
13.03.2019 22:00:00 6,1 -1,8 5 3 NNW 1033,3 20 -
13.03.2019 21:00:00 7,5 -2,5 9 5 NNW 1032,4 20 0,0
13.03.2019 20:00:00 8,7 -2,3 9 5 NNW 1031,2 20 0,0
13.03.2019 19:00:00 10,5 -2,9 13 7 NNW 1030,1 30 -
13.03.2019 18:00:00 11,2 -3,0 13 7 NNW 1029,2 20 0,0
13.03.2019 17:00:00 11,9 -2,0 13 7 NW 1028,7 20 0,0
13.03.2019 16:00:00 12,5 -1,4 11 6 NW 1028,2 30 -
13.03.2019 15:00:00 11,4 -1,4 15 8 NNW 1028,9 20 0,0
13.03.2019 14:00:00 11,0 -1,1 9 5 NW 1029,4 20 0,0
13.03.2019 13:00:00 10,6 -1,5 15 8 NW 1029,7 30 -
13.03.2019 12:00:00 9,5 -1,6 13 7 NW 1030,1 20 0,0
13.03.2019 11:00:00 7,8 -0,7 11 6 NNW 1030,8 20 0,0
13.03.2019 10:00:00 5,1 -1,6 8 4 N 1031,6 20 -

tt = temperature
td = dewpoint
ff = wind speed
dd = wind direction
ppp = reduced air pressure
vv = visibility
rr = precipitation

Next stations